Theta_e
301 301 300 300 299 299 299 299 299 299 299 299 300 300 301 301 301 301 301 302 303 304 305 307 307 307 307 308 309 309 309 308 308 308 308 308 308 307 307 306 306 306 305
298 298 297 297 297 296 296 296 296 296 296 297 297 297 298 298 298 298 298 299 299 301 302 304 304 304 304 304 304 306 306 306 307 306 306 306 306 305 305 304 304 304 303
296 296 295 295 295 294 294 294 294 294 294 295 295 295 295 296 296 297 296 296 297 297 298 300 300 301 300 300 300 300 302 303 303 304 303 304 304 304 303 302 301 300 300
295 294 294 293 293 293 292 292 292 292 292 293 293 293 294 294 295 295 294 294 294 294 295 295 295 296 296 297 297 298 298 299 299 301 301 302 302 302 300 296 294 295 297
294 293 292 292 291 291 291 290 290 290 290 291 291 291 292 292 293 293 292 292 291 292 292 293 293 292 293 293 293 294 295 296 297 298 299 299 300 299 293 296 292 293 293
292 291 291 291 290 290 289 289 289 289 289 289 289 290 290 291 291 292 292 290 290 290 291 291 291 291 291 291 291 292 294 294 294 294 295 296 296 297 297 295 292 291 289
291 290 290 289 289 289 288 288 288 288 288 288 288 288 288 289 290 290 290 289 289 289 290 290 290 290 290 290 290 290 291 291 292 292 292 293 293 293 294 294 291 290 291
290 289 288 288 287 287 287 287 287 286 286 286 286 287 287 288 289 288 288 287 287 288 288 289 289 289 289 289 289 289 289 289 290 290 290 290 290 290 290 290 291 290 288
288 288 287 286 286 286 286 286 286 285 285 285 285 285 285 286 288 288 287 286 286 286 287 287 287 287 288 288 288 289 289 288 288 288 289 289 289 288 288 289 289 287 287
286 286 285 285 284 284 284 284 283 283 283 283 284 284 285 285 286 286 286 286 285 286 286 286 286 287 287 288 288 288 288 287 287 287 288 288 287 287 287 288 289 287 285
285 285 284 283 282 282 281 281 281 281 282 282 283 283 283 284 284 285 285 285 285 285 285 285 286 286 287 286 287 287 287 287 287 287 287 287 286 286 286 286 286 286 284
283 282 282 282 281 280 280 280 280 280 281 283 284 284 284 283 284 285 286 286 285 285 285 285 286 285 286 286 286 286 286 286 286 287 287 287 286 284 284 284 284 285 284
280 280 280 280 279 279 278 278 278 279 280 281 282 283 283 283 284 285 286 285 285 285 285 285 285 285 285 285 285 286 285 285 286 286 286 284 283 282 283 282 282 283 283
278 278 278 277 277 277 276 276 277 278 279 279 280 281 282 282 283 285 286 285 286 285 285 284 284 286 286 286 285 285 285 285 284 284 284 283 282 282 281 281 281 281 280
276 276 275 275 274 274 274 275 275 276 277 278 279 280 281 282 284 285 285 286 285 285 285 284 286 285 286 285 285 284 284 284 284 284 284 283 282 282 281 281 281 280 279
274 273 273 272 272 273 274 274 275 276 277 278 279 281 282 283 284 284 285 285 286 285 284 285 284 284 284 283 283 283 283 283 284 284 284 283 283 282 281 281 280 280 278
272 271 271 271 271 272 273 273 274 275 276 278 280 282 282 282 281 282 285 285 285 284 283 282 281 281 281 281 281 281 281 281 282 283 283 283 282 282 281 280 280 279 278
271 271 270 270 271 271 271 272 272 273 275 277 280 280 280 279 278 280 283 284 283 281 278 277 277 277 277 277 277 277 278 279 279 279 279 279 279 280 280 279 279 279 277
271 270 270 269 270 270 271 272 274 275 277 279 278 277 276 276 276 279 279 279 277 276 275 275 274 274 274 275 275 275 275 275 276 276 276 276 276 277 276 276 276 275 276
270 269 268 269 269 271 272 273 275 277 277 276 274 274 273 274 274 273 273 273 273 273 272 272 272 273 273 273 273 274 274 274 274 274 274 274 274 274 274 274 274 274 273
268 269 269 269 271 272 272 273 274 275 275 274 272 272 273 271 270 270 270 271 271 271 271 271 272 271 271 271 272 271 271 271 271 271 271 272 272 272 272 271 271 271 271
267 268 268 269 270 271 271 271 272 272 272 271 271 270 270 270 269 269 269 270 270 270 270 269 268 268 269 269 269 268 268 268 268 268 268 268 268 269 269 270 269 269 269
267 267 268 269 270 270 270 270 270 270 270 269 269 269 269 269 268 268 268 269 268 268 268 268 268 268 267 267 267 267 267 267 267 267 267 267 267 267 267 267 267 267 267
266 267 267 268 268 268 269 269 268 268 268 268 267 267 267 268 268 267 267 267 267 267 267 266 266 266 266 266 266 266 266 266 266 266 266 266 266 266 266 266 266 265 265
266 266 266 266 266 267 267 267 267 266 266 267 267 267 266 266 266 265 265 265 265 265 265 266 266 266 266 266 266 266 266 265 265 265 265 265 265 265 265 265 265 265 264
265 265 265 265 265 265 265 265 266 265 266 266 266 266 266 265 265 264 264 264 265 265 265 265 265 265 266 266 266 265 265 265 265 264 263 264 264 264 264 264 264 263 263
Wind_Speed
13 13 15 15 14 14 14 15 16 17 18 19 20 20 20 21 20 21 21 22 22 23 24 24 26 28 29 28 28 30 30 27 20 48 35 32 33 34 36 35 39 41 44
13 13 15 14 15 15 17 18 19 19 20 20 22 22 22 23 23 24 24 24 23 23 24 24 26 25 27 28 27 29 30 31 28 30 43 34 34 35 38 38 39 41 41
14 14 14 16 16 16 17 19 20 21 22 22 21 22 22 24 24 25 24 24 26 26 25 25 27 26 28 27 27 29 30 29 30 30 38 36 32 32 35 34 35 36 37
12 12 14 14 15 17 19 21 23 23 24 24 24 25 25 25 25 24 24 30 31 30 30 30 30 27 28 28 29 29 30 29 30 30 32 34 31 27 27 26 26 32 38
12 13 13 13 15 17 20 22 23 24 23 23 25 26 26 26 24 26 31 33 32 33 35 35 33 28 29 31 32 32 30 28 27 26 27 28 28 23 19 23 24 26 29
9 10 12 15 17 20 23 24 25 26 26 28 30 29 30 31 30 30 30 32 33 33 34 36 34 31 31 30 28 31 32 31 28 24 26 24 29 25 22 23 22 13 4
8 11 13 16 20 23 25 27 28 29 30 33 33 33 32 34 34 33 30 31 34 34 33 33 34 32 27 28 29 28 27 26 27 29 28 30 28 25 23 22 20 18 20
9 13 16 19 21 25 27 29 30 30 31 31 34 36 36 38 36 34 31 31 31 32 31 29 29 29 25 26 27 28 27 26 27 28 30 35 31 32 28 27 28 25 15
10 14 17 21 25 28 30 32 34 34 36 36 35 36 34 38 36 32 26 28 27 28 26 26 26 28 27 25 27 29 29 27 25 26 26 28 29 29 28 28 18 11 4
12 17 20 22 24 29 31 31 33 33 35 34 37 35 36 36 32 25 24 25 27 27 27 26 25 26 27 27 28 26 26 25 25 26 25 25 24 24 21 18 16 11 4
15 18 20 24 28 29 30 32 32 31 32 33 30 28 26 24 26 24 23 23 23 27 27 28 26 25 25 23 23 25 24 27 27 24 19 17 17 14 11 5 4 4 7
16 19 23 26 27 28 28 30 29 28 26 25 25 28 23 22 23 24 24 22 23 24 25 26 25 23 25 24 22 19 21 19 17 14 14 10 7 8 9 7 4 6 5
17 21 23 25 26 25 27 26 24 21 22 24 22 24 25 22 23 24 24 20 23 22 24 23 24 21 19 17 15 13 14 14 14 12 9 8 8 7 8 11 11 10 11
18 20 22 23 24 24 23 22 20 20 21 22 21 23 26 27 25 24 20 27 25 20 20 22 18 15 12 12 13 13 13 14 12 10 7 7 8 10 11 10 13 12 15
16 18 19 18 21 24 22 21 22 22 23 26 26 27 28 27 25 24 29 27 19 16 17 14 13 14 14 15 13 14 14 12 12 11 10 10 11 12 12 10 11 11 10
16 15 15 18 18 20 21 25 20 21 22 24 26 26 27 27 21 23 23 17 13 11 9 10 11 13 13 15 14 13 16 16 14 11 11 10 10 10 10 11 10 10 10
15 17 16 16 16 17 19 20 26 24 20 20 17 18 16 14 16 19 17 9 5 6 5 8 9 12 13 13 14 14 14 15 13 13 12 11 10 9 9 10 9 8 8
15 17 16 15 16 17 17 19 21 22 23 22 18 16 13 13 14 19 16 4 3 7 8 8 9 10 11 12 14 15 14 14 14 14 13 13 13 12 11 10 9 7 6
15 15 14 16 16 17 19 18 19 20 21 16 17 16 19 14 9 10 6 4 6 8 8 8 9 10 11 12 13 13 14 14 15 14 14 14 13 11 10 9 9 8 6
14 14 15 16 14 15 15 16 16 16 13 11 11 16 20 9 8 10 10 10 10 9 8 8 9 9 10 11 12 13 13 14 14 14 14 13 13 11 11 10 9 8 7
13 13 12 14 12 13 13 13 13 12 10 8 7 9 12 7 6 7 7 9 8 7 7 8 8 9 9 9 9 10 10 10 11 10 11 11 11 10 9 7 7 6 5
11 12 12 13 12 11 11 11 9 8 7 6 6 7 8 5 5 5 5 6 6 6 5 5 6 7 8 9 9 8 8 8 9 9 9 9 8 8 7 7 6 5 5
10 9 10 11 10 10 8 8 7 5 4 5 5 5 4 4 3 3 4 4 4 4 5 5 6 7 7 7 7 7 7 7 8 8 8 8 8 8 7 6 6 5 4
8 7 8 9 8 7 6 6 5 5 4 4 4 4 4 4 4 5 6 6 6 7 7 7 7 7 7 7 6 6 7 7 7 7 7 7 7 7 7 6 6 5 4
8 7 7 8 8 7 7 6 6 6 5 5 5 5 6 8 8 9 9 10 10 9 8 8 8 8 8 8 8 8 9 9 8 8 7 8 8 7 7 6 6 5 5
9 8 8 9 10 9 9 9 9 9 9 8 9 10 10 12 13 13 12 10 10 9 10 9 10 11 12 12 12 12 12 12 11 11 11 12 11 10 10 9 8 7 7
Wind_Direction
67 65 62 56 49 42 34 25 18 9 1 356 351 346 341 336 332 325 319 313 304 298 293 287 284 281 280 278 276 274 264 257 264 280 280 285 276 279 274 271 274 270 272
69 63 57 48 41 33 24 15 7 2 356 350 345 341 337 333 330 327 322 316 310 304 299 294 289 289 285 284 281 276 274 272 267 271 281 278 275 275 278 273 272 268 267
62 55 46 37 27 17 8 0 355 349 346 341 337 335 332 330 327 325 321 317 312 306 300 294 291 292 290 289 288 285 282 279 278 279 280 283 280 277 276 272 270 272 271
56 46 33 19 10 2 354 349 344 341 336 333 331 330 328 325 325 324 318 317 313 309 304 300 297 291 288 290 290 289 287 284 281 275 275 281 282 280 271 268 270 272 274
39 25 12 358 349 347 345 342 338 336 334 329 327 326 326 324 323 317 320 318 314 309 308 307 303 295 288 287 287 284 282 281 281 282 281 282 279 272 260 272 260 267 272
22 6 352 344 344 344 341 339 338 334 332 328 327 325 323 323 322 323 321 316 312 308 305 305 304 299 297 294 291 285 281 281 283 283 282 279 281 281 282 267 256 258 274
358 345 343 344 342 340 337 335 334 331 328 326 325 322 318 318 321 323 322 314 310 305 301 298 299 299 298 298 297 293 286 282 282 283 282 281 285 287 291 288 260 246 255
333 341 343 340 335 333 330 330 328 326 323 321 319 319 317 317 320 321 321 312 307 302 298 296 294 295 298 298 298 296 292 289 287 287 284 287 289 292 289 280 276 261 256
339 338 334 332 329 328 327 326 324 322 321 319 317 315 313 314 318 320 316 313 305 302 303 300 300 301 301 303 303 300 299 298 299 299 292 290 292 294 291 287 252 217 205
333 329 326 325 326 325 322 320 319 318 315 315 314 314 316 314 314 315 316 311 304 306 307 305 305 302 306 306 304 302 299 303 307 308 301 305 305 308 306 285 250 217 126
322 320 320 321 321 319 317 316 316 315 312 311 307 304 304 307 308 310 311 309 305 305 305 309 309 309 310 310 309 306 302 308 309 309 309 314 321 332 339 311 264 204 137
313 315 318 317 316 316 315 317 318 316 307 300 299 301 304 305 306 304 311 310 312 304 304 308 312 313 314 313 314 314 316 320 322 326 326 339 13 47 57 63 83 118 122
311 315 318 319 320 320 319 317 312 307 301 301 302 304 304 308 311 310 310 311 318 309 311 310 312 317 323 327 336 342 352 354 353 356 19 19 47 64 70 74 78 84 84
311 316 319 319 319 320 312 306 298 299 299 299 302 302 305 307 306 306 313 314 314 318 321 322 326 331 345 350 352 355 6 9 5 6 30 49 62 64 66 74 69 71 75
311 314 317 317 311 311 308 302 299 296 294 297 296 297 298 297 303 304 309 309 310 315 320 336 345 358 6 4 6 12 18 21 25 29 44 61 66 66 61 60 60 49 73
311 315 310 309 308 309 308 309 305 297 297 295 295 293 295 295 300 315 311 307 307 317 331 347 4 8 15 14 13 9 24 28 31 46 51 56 51 53 52 51 55 60 81
301 303 307 307 306 307 307 305 308 314 309 309 310 310 312 321 324 322 316 303 298 327 8 10 13 13 11 13 13 12 15 21 33 40 43 42 42 41 40 43 49 63 77
301 304 303 301 296 296 298 300 300 303 312 318 332 330 326 324 332 320 319 203 22 37 43 31 22 23 23 21 20 21 22 25 31 32 35 32 31 29 30 32 35 46 80
299 297 295 296 299 296 300 298 300 303 301 315 331 332 326 324 323 333 16 82 71 59 47 41 34 31 28 25 22 23 23 25 28 30 31 31 32 35 38 42 35 49 54
298 296 296 298 300 300 298 303 308 312 324 328 345 352 344 347 13 29 49 67 69 61 51 42 36 35 33 32 26 26 25 25 28 28 28 27 27 32 33 31 38 47 54
290 293 296 298 290 294 299 304 309 314 317 323 330 5 358 13 30 49 48 56 62 55 46 38 33 32 31 29 29 25 22 18 19 19 18 18 19 19 25 29 34 45 61
284 287 291 292 296 298 298 304 305 308 311 315 319 330 3 15 28 35 55 57 53 49 38 24 14 14 13 11 12 12 11 9 9 11 11 9 8 4 13 12 26 37 47
270 281 289 285 285 293 300 295 299 303 304 306 310 318 344 2 8 14 8 21 12 1 354 349 345 342 344 347 350 352 356 358 0 1 0 1 359 358 3 360 0 16 18
265 273 280 285 284 290 288 291 294 303 303 302 305 310 313 315 316 318 314 313 314 316 318 321 321 322 325 330 332 333 335 337 336 339 342 343 343 344 344 344 345 346 342
268 273 280 283 286 287 290 288 282 280 281 281 280 284 295 298 296 296 297 298 300 301 302 305 307 308 310 313 316 316 315 315 311 312 314 316 320 321 319 315 314 312 307
265 269 274 276 279 281 277 275 273 274 274 273 277 281 284 288 290 289 290 290 292 295 298 298 300 301 302 304 305 304 303 303 301 295 293 299 303 304 303 301 296 287 279